User: anonymous   Login
Location: Liscomb Game Sanctuary
(45.1633°N, 62.5575°W)
Time: 03:44:08
(UTC-03:00)
Language:

Cosmos 921 Rocket - Orbit

View from above orbital plane
View from above orbital plane
View from above satellite
View from above satellite

Ground track
Ground track

The orbit data is extracted from the following two-line orbital elements,

1 10096U 77055B   18196.61281463  .00000011  00000-0  34759-5 0  9991
2 10096  75.8340  20.7912 0043152 284.4162  75.2242 14.88626968220787
Epoch (UTC): 15 July 2018 14:42:27
Eccentricity: 0.0043152
inclination: 75.8340°
perigee height: 572 km
apogee height: 632 km
right ascension of ascending node: 20.7912°
argument of perigee: 284.4162°
revolutions per day: 14.88626968
mean anomaly at epoch: 75.2242°
orbit number at epoch: 22078

The dashed part of the orbit path shows where the satellite is in the earth's shadow,  

DLR